SLS DEB

基本信息
目录编号:
55904
目录名称:
SLS DEB
国际标识:
2022-156D
轨道中心:
EARTH
物体状态:
在轨
发射日期:
2022-11-16 UTC
轨道信息
数据来源: 国际轨道数据
星历时间: 2026-03-06T08:00:42+0800
半长轴: 8096.044km
偏心率: 0.1664293
轨道倾角: 30.385°
近地点辐角: 183.451°
升交点赤经: 338.534°
平近点角: 175.311°
近地点: 370.488km
远地点: 3065.326km
周期: 120.828分钟
每日圈数: 11.91773
详细信息
发射场:
AFETR
轨道高度:
LEO
数据来源:
AOE Integration Group
参考系:
TEME
时间系统:
UTC
历元类型:
SGP4
2D轨道图
3D轨道图
轨道高度分析图
轨道倾角分析图
轨道综合分析图
查看轨道综合分析图